Regional Weather Roundup
Issued by NWS

Home | Current Version | Previous Version | Graphics & Text | Print | Product List | Glossary On
Versions: 1 2 3 4 5 6 7 8 9 10 11 12 13 14 15 16 17 18 19 20 21 22 23 24 25 26 27 28 29 30 31 32 33 34 35 36 37 38 39 40 41 42 43 44 45 46
000
ASUS45 KBOI 252310
RWRID
WEATHER ROUNDUP FOR IDAHO
NATIONAL WEATHER SERVICE BOISE ID
400 PM MST THU DEC 25 2014

NOTE: "FAIR" INDICATES FEW OR NO CLOUDS BELOW 12000 FEET
WITH NO SIGNIFICANT WEATHER AND/OR OBSTRUCTIONS TO VISIBILITY

IDZ012-014-260000-
SOUTHWEST IDAHO


CITY           SKY/WX    TMP DP  RH WIND       PRES   REMARKS
BOISE          CLEAR     36  24  62 NW20      29.96R WCI  25
CALDWELL       CLEAR     37  23  56 SW16      30.01R WCI  28
MOUNTAIN HOME  CLEAR     34  25  69 NW30G38   29.90R WCI  21
$$

IDZ016-017-260000-
SOUTHCENTRAL IDAHO


CITY           SKY/WX    TMP DP  RH WIND       PRES   REMARKS
BURLEY         CLOUDY    29  23  78 W15       29.80  WCI  18
JEROME         CLOUDY    30  24  78 W17       29.81R WCI  18
TWIN FALLS     CLOUDY    31  22  69 W30G37    29.82R WCI  16
$$

IDZ019>023-260000-
SOUTHEAST IDAHO


CITY           SKY/WX    TMP DP  RH WIND       PRES   REMARKS
IDAHO FALLS    CLOUDY    27  18  69 N23G32    29.73R WCI  12
POCATELLO      MOCLDY    30  20  66 N12       29.78R WCI  20
REXBURG        CLOUDY    26  16  65 N16G22    29.73R WCI  14
$$

IDZ006-010-011-018-031-032-260000-
CENTRAL IDAHO MOUNTAINS


CITY           SKY/WX    TMP DP  RH WIND       PRES   REMARKS
MCCALL         CLOUDY    25  17  72 N10G22    29.93R WCI  15
HAILEY         PTCLDY    30  12  47 NW13      29.78R WCI  20
STANLEY          N/A     24  10  55 NW9       29.84R WCI  14
SALMON         MOCLDY    30  16  55 N10       29.91R WCI  21
CHALLIS        CLOUDY    27  16  63 N7        29.87R WCI  19
$$

IDZ002-004-006-007-026-260000-
NORTHERN IDAHO


CITY           SKY/WX    TMP DP  RH WIND       PRES   REMARKS
LEWISTON       CLEAR     42  26  53 NW9       30.09R
LOWELL           N/A     36  33  89 CALM      30.12R
COEUR D`ALENE  MOCLDY    34  32  93 SW3       30.04S
MULLAN PASS    HAZE      22  17  81 VRB5      29.88R VSB 1/2 WCI  16
$$


USA.gov is the U.S. government's official web portal to all federal, state and local government web resources and services.